Temperature
5 5 5 5 5 5 5 5 5 4 5 6 6 6 6 6 6 6 6 6 6 6 6 5 5 5 5 5 5 5 5 5 5 4 4 4 5 5
5 5 5 5 4 5 5 5 5 4 4 5 5 5 5 5 5 5 5 5 6 5 5 5 5 5 5 5 4 4 4 4 4 4 4 4 4 4
4 4 4 4 4 4 4 4 4 4 4 4 5 5 4 5 5 5 5 5 5 5 5 5 5 4 4 4 4 4 4 4 4 4 4 4 4 4
3 3 4 4 4 4 4 4 4 4 3 4 4 4 4 4 4 4 5 5 5 5 5 4 4 4 4 4 4 4 4 4 3 3 3 3 3 3
3 3 3 3 3 3 3 3 3 3 3 3 3 3 4 4 4 4 4 4 4 4 4 4 4 4 4 3 3 3 3 3 3 3 3 3 3 3
2 2 2 3 3 3 3 2 3 3 2 2 3 3 3 3 3 3 4 4 4 4 4 3 3 3 3 3 3 3 3 3 3 3 3 3 3 3
2 2 2 2 2 2 2 2 2 2 2 2 2 3 3 3 2 2 3 3 3 3 3 3 3 3 3 3 3 2 3 3 2 2 2 2 2 2
1 2 2 2 2 2 1 1 1 2 2 2 2 2 2 2 2 2 2 2 2 2 2 3 3 3 3 2 2 2 2 2 2 2 2 2 2 2
1 1 1 1 1 1 1 1 1 1 1 1 1 1 1 1 1 1 1 1 1 1 1 2 2 2 2 2 2 2 2 2 2 2 2 2 2 2
0 0 0 0 0 1 1 1 1 1 1 1 1 1 1 1 0 0 0 0 1 1 1 1 2 2 2 2 2 2 2 2 2 2 2 2 2 2
-0 0 0 -0 -0 -0 0 0 1 1 1 1 1 1 1 1 0 -0 -0 -0 0 0 0 0 1 1 2 2 2 1 1 1 1 1 2 2 2 2
-1 -1 -1 -1 -1 -1 -0 -0 -0 0 0 1 1 1 0 0 0 -0 -1 -1 -1 -1 -1 -1 -0 -0 -0 1 1 1 1 1 1 1 1 1 1 1
-1 -1 -1 -1 -1 -1 -1 -1 -1 -1 -0 0 0 0 0 -0 -0 -1 -1 -1 -1 -1 -1 -1 -1 -1 -1 -0 1 1 1 1 1 1 1 1 1 1
-2 -2 -2 -2 -2 -1 -1 -1 -1 -1 -1 -1 -0 -0 -0 -0 -1 -1 -1 -1 -1 -1 -1 -1 -1 -1 -1 -1 -0 0 1 1 1 1 1 1 1 1
-2 -2 -2 -2 -2 -2 -2 -2 -2 -2 -1 -1 -1 -1 -1 -1 -1 -1 -1 -1 -1 -1 -1 -1 -1 -1 -1 -1 -1 -0 0 0 0 0 1 1 1 1
-3 -3 -3 -2 -2 -2 -2 -2 -2 -2 -2 -2 -2 -2 -2 -2 -2 -2 -1 -1 -1 -1 -1 -1 -1 -1 -1 -1 -1 -0 -0 -0 0 0 0 1 1 1
-3 -3 -3 -3 -3 -3 -3 -3 -3 -3 -2 -2 -2 -2 -2 -2 -2 -2 -2 -2 -2 -2 -1 -1 -1 -1 -1 -1 -1 -1 -0 -0 -0 -0 0 1 1 1
-4 -4 -4 -4 -4 -4 -4 -4 -4 -3 -3 -3 -3 -3 -3 -3 -3 -3 -3 -2 -2 -2 -2 -2 -1 -1 -1 -1 -1 -1 -1 -0 -0 -0 -0 0 1 1
-4 -4 -4 -4 -4 -4 -4 -4 -4 -4 -4 -4 -3 -3 -3 -3 -3 -3 -3 -3 -3 -3 -2 -2 -2 -2 -2 -2 -2 -1 -1 -1 -1 -0 -0 0 0 1
-5 -5 -5 -5 -5 -5 -5 -5 -5 -4 -4 -4 -4 -4 -4 -4 -4 -4 -4 -3 -3 -3 -3 -3 -3 -3 -3 -3 -2 -1 -1 -1 -1 -1 -0 -0 0 0
-5 -5 -5 -5 -5 -5 -5 -5 -5 -5 -5 -5 -4 -4 -4 -4 -4 -4 -4 -4 -4 -3 -3 -3 -3 -3 -3 -3 -2 -2 -1 -1 -1 -1 -1 -0 -0 0
-6 -6 -6 -6 -6 -6 -6 -6 -6 -5 -5 -5 -5 -5 -5 -5 -5 -4 -4 -4 -4 -4 -4 -3 -3 -3 -3 -3 -3 -2 -2 -1 -1 -1 -1 -1 -1 -1
-6 -6 -6 -6 -6 -6 -6 -6 -6 -6 -6 -5 -5 -5 -5 -5 -5 -5 -5 -4 -4 -4 -4 -3 -3 -3 -3 -3 -3 -2 -2 -2 -1 -1 -1 -1 -1 -1
Wind_Speed
1 1 1 0 0 1 1 1 1 2 3 2 1 2 5 5 8 7 8 10 11 11 10 10 10 9 9 9 9 9 9 9 10 10 11 12 12 12
1 1 1 0 0 0 0 1 1 2 3 3 2 3 5 6 8 8 8 10 10 10 10 9 8 8 9 9 9 9 10 10 10 10 11 11 11 10
0 1 0 0 0 1 0 1 1 1 3 4 3 3 3 4 6 8 8 8 8 10 10 9 9 9 9 9 9 10 10 10 10 10 10 10 10 10
0 1 0 0 1 1 0 1 1 1 2 5 4 3 3 3 4 5 7 7 8 9 10 10 9 9 9 9 9 9 9 8 9 9 9 9 9 9
0 0 1 0 1 1 1 1 2 1 2 3 4 3 3 3 4 5 5 5 7 9 9 10 10 10 9 10 9 9 9 8 8 8 8 9 9 9
0 1 1 1 1 1 1 2 1 1 1 2 4 3 3 3 3 5 6 5 5 6 8 9 10 10 10 10 10 10 9 9 9 8 8 8 8 9
1 1 1 2 3 2 2 2 1 1 1 2 3 3 3 3 4 4 6 6 5 3 5 6 7 6 8 9 9 10 10 10 9 9 9 8 8 9
1 1 2 2 3 4 4 3 2 2 2 2 3 4 4 4 4 4 5 6 4 3 5 7 5 5 6 7 9 10 10 10 9 9 9 9 9 8
1 1 2 2 3 2 3 4 4 4 4 3 4 4 4 4 4 4 4 5 5 5 5 5 4 5 6 8 11 10 9 9 10 10 9 9 9 8
0 0 1 2 3 2 2 2 3 3 3 2 3 4 4 4 4 4 4 5 5 4 2 3 4 5 7 8 9 10 11 10 10 10 10 9 9 8
1 1 1 2 4 5 3 3 4 4 4 5 5 5 5 5 4 2 3 3 4 4 1 2 3 5 5 4 7 10 11 12 11 10 10 9 8 7
1 1 3 4 6 6 3 2 4 4 4 5 4 4 4 4 4 2 2 3 3 3 2 2 3 4 4 4 4 7 9 10 11 11 10 9 8 4
1 2 2 6 7 7 5 2 4 5 3 3 3 3 3 2 3 3 2 2 3 3 3 2 3 3 3 4 4 5 5 6 7 8 9 9 8 4
1 1 3 7 7 7 5 5 6 5 2 2 2 3 3 3 3 4 5 5 5 6 7 4 3 3 4 5 5 4 5 5 5 5 6 8 8 7
1 3 4 6 6 5 5 7 5 3 2 2 3 3 3 3 4 4 4 4 4 5 6 6 4 4 4 5 5 5 5 5 4 4 5 5 5 4
2 3 4 5 4 4 4 4 3 3 3 2 3 3 3 3 3 3 3 4 4 4 5 6 5 4 4 5 5 6 5 4 4 5 5 4 4 3
2 2 2 2 3 3 3 3 3 3 3 3 3 3 3 3 3 3 2 3 3 4 5 5 6 5 4 4 4 5 4 4 4 4 4 5 4 3
2 1 2 2 2 3 3 3 3 3 3 3 3 3 3 3 4 3 3 3 3 4 5 5 5 5 3 2 3 4 4 4 4 4 3 3 4 4
2 1 2 2 3 3 3 3 3 4 3 3 4 3 3 3 3 3 4 3 4 4 4 4 4 4 5 5 4 2 3 4 4 4 3 2 3 5
2 2 2 2 2 3 3 3 4 4 4 4 4 4 3 4 4 4 4 4 4 4 4 4 3 3 4 4 4 5 5 4 3 4 4 3 3 5
2 2 2 2 3 3 3 3 3 4 4 4 4 4 4 4 4 4 4 5 4 4 5 5 4 6 4 3 3 4 4 6 4 3 3 3 3 3
1 2 2 2 2 3 3 3 3 4 4 4 4 5 5 4 5 5 4 4 4 4 5 5 4 3 2 3 4 5 5 6 6 6 4 2 1 1
1 2 2 2 2 2 3 3 4 4 4 4 4 5 5 5 5 4 4 4 3 4 4 4 4 3 3 3 3 4 5 5 4 5 4 6 5 4
Wind_Direction
174 157 154 69 20 274 236 204 211 283 284 291 316 322 335 332 328 334 330 325 325 323 320 316 312 313 314 312 313 311 310 309 309 307 306 306 308 308
177 145 121 308 6 332 245 288 263 250 275 281 278 301 314 327 330 335 325 328 328 323 320 318 316 316 318 317 311 308 306 307 308 308 307 306 310 312
72 137 136 67 35 355 316 284 308 279 278 293 287 302 308 321 330 332 329 327 327 326 323 323 323 320 318 315 312 310 309 308 309 310 312 309 309 309
29 56 4 22 24 336 300 283 290 290 273 290 299 306 310 316 321 319 329 329 331 328 331 328 324 322 319 316 315 314 313 310 309 312 313 313 312 312
4 315 298 317 327 319 310 292 287 303 288 287 293 301 310 321 327 325 323 324 333 332 333 334 330 325 323 320 320 319 318 314 310 309 310 313 313 312
320 287 281 278 280 295 312 301 296 316 316 305 298 309 316 320 329 332 332 332 326 330 335 333 330 329 326 325 323 321 319 316 311 307 306 309 311 310
328 309 299 309 316 311 315 310 311 307 309 311 310 316 322 334 333 325 324 327 322 329 329 328 326 325 323 319 319 319 319 318 314 311 309 308 309 307
308 327 328 334 337 336 323 324 318 294 295 297 304 304 308 314 316 319 325 331 321 335 333 316 318 308 315 319 318 321 323 321 318 316 312 309 308 307
298 315 335 337 339 323 325 333 329 326 311 284 283 289 296 299 303 307 310 310 300 307 322 303 313 308 313 314 320 321 320 320 319 318 315 312 311 310
276 290 314 317 320 321 324 336 324 316 311 304 278 278 285 286 276 286 292 302 296 294 304 289 305 304 310 313 319 326 324 322 321 320 319 317 313 312
351 348 324 305 315 331 348 335 328 326 332 328 315 316 319 319 322 317 316 321 317 310 328 300 305 310 304 299 319 326 329 326 323 322 324 322 316 314
351 354 342 332 324 336 345 327 320 316 326 332 336 343 331 321 331 318 283 296 308 300 321 327 309 326 316 300 313 326 327 325 328 326 324 322 320 319
354 350 337 334 334 339 341 320 308 319 322 319 320 326 327 326 328 326 296 263 274 275 287 316 295 300 288 300 307 312 323 322 322 324 323 322 320 317
353 336 332 335 341 344 346 334 333 343 336 322 327 327 327 325 317 315 307 292 268 263 271 277 274 283 295 298 300 312 318 320 323 323 326 323 317 308
357 335 341 346 351 354 347 347 356 357 333 326 322 315 306 301 307 316 322 322 310 293 285 279 272 277 280 285 296 304 311 313 324 326 323 323 319 316
7 355 1 3 9 358 354 356 357 345 338 314 303 300 305 310 313 320 326 335 334 324 320 317 304 282 286 286 286 297 303 306 320 323 318 316 320 314
15 29 19 8 5 0 358 355 351 345 341 327 313 312 316 318 318 328 325 329 332 328 330 331 327 308 273 276 293 296 302 309 312 321 325 325 319 325
34 21 355 348 344 344 345 342 339 339 335 329 319 313 316 319 323 331 332 329 326 323 324 327 333 336 333 314 262 292 311 313 318 323 327 322 321 329
35 11 352 346 343 341 336 330 324 325 328 327 324 320 317 318 322 326 328 327 323 317 315 317 332 344 336 328 321 308 309 316 321 323 325 318 310 316
28 8 351 339 331 328 325 324 325 327 329 326 323 321 317 314 314 318 318 319 319 319 319 321 327 329 309 299 302 311 315 312 318 324 328 325 318 314
2 346 338 333 327 326 324 323 323 322 324 328 325 322 318 312 308 310 312 316 319 317 317 317 313 320 308 309 316 322 324 326 320 314 319 326 334 349
337 327 326 324 324 325 327 325 324 323 323 324 323 321 319 315 309 307 308 309 308 309 309 311 318 330 343 338 323 318 326 335 343 345 331 304 304 313
312 311 307 306 312 315 318 317 317 317 316 316 316 315 317 317 315 310 308 307 309 316 321 323 330 336 332 322 319 323 329 334 342 355 350 345 336 318
Height
1482 1482 1482 1483 1483 1484 1484 1484 1484 1481 1479 1478 1479 1479 1478 1477 1476 1475 1474 1472 1471 1469 1468 1467 1465 1464 1462 1460 1459 1457 1456 1454 1453 1451 1450 1448 1447 1446
1479 1479 1480 1481 1481 1481 1481 1481 1481 1480 1477 1476 1476 1475 1474 1473 1472 1471 1470 1469 1467 1466 1464 1463 1462 1460 1458 1457 1455 1453 1452 1450 1449 1447 1446 1444 1443 1442
1476 1476 1477 1478 1478 1478 1478 1478 1477 1477 1475 1473 1473 1472 1471 1470 1468 1467 1466 1464 1463 1462 1461 1459 1458 1456 1455 1453 1451 1450 1448 1446 1445 1444 1442 1441 1439 1438
1473 1473 1474 1475 1475 1475 1475 1474 1474 1474 1473 1470 1469 1468 1467 1466 1464 1463 1462 1460 1459 1458 1457 1456 1454 1453 1451 1449 1448 1446 1444 1443 1441 1440 1439 1437 1436 1435
1470 1471 1472 1472 1472 1472 1471 1471 1471 1471 1470 1468 1465 1464 1463 1462 1461 1460 1458 1457 1456 1455 1454 1452 1451 1449 1447 1446 1444 1442 1441 1439 1438 1436 1435 1434 1432 1431
1468 1469 1469 1469 1469 1469 1469 1469 1468 1467 1466 1465 1463 1461 1460 1459 1458 1456 1454 1453 1452 1451 1450 1449 1447 1446 1444 1442 1440 1438 1437 1435 1434 1433 1431 1430 1428 1427
1466 1467 1467 1467 1467 1467 1466 1466 1465 1464 1463 1462 1461 1459 1458 1456 1455 1453 1451 1450 1449 1448 1446 1445 1443 1442 1440 1438 1437 1435 1433 1432 1430 1429 1427 1426 1425 1423
1463 1464 1464 1464 1464 1464 1464 1463 1463 1462 1461 1460 1459 1457 1455 1454 1453 1451 1449 1447 1445 1445 1443 1441 1440 1438 1436 1435 1433 1431 1429 1428 1427 1425 1423 1422 1421 1419
1461 1461 1461 1461 1461 1461 1461 1461 1460 1459 1459 1458 1457 1455 1453 1452 1451 1449 1447 1446 1444 1442 1440 1438 1437 1435 1433 1431 1430 1428 1426 1425 1423 1422 1420 1418 1417 1416
1459 1459 1459 1459 1459 1459 1458 1458 1457 1456 1455 1455 1454 1452 1451 1450 1449 1447 1446 1444 1442 1440 1438 1436 1433 1431 1430 1428 1427 1425 1423 1421 1420 1418 1416 1415 1413 1412
1457 1457 1457 1457 1456 1456 1455 1454 1453 1453 1452 1451 1450 1449 1449 1448 1447 1445 1443 1441 1438 1437 1436 1434 1431 1428 1426 1426 1424 1422 1420 1418 1416 1414 1412 1411 1410 1409
1455 1455 1455 1454 1454 1453 1452 1451 1451 1450 1449 1448 1448 1447 1446 1445 1444 1442 1441 1439 1437 1435 1434 1432 1429 1427 1424 1422 1421 1419 1417 1415 1413 1411 1409 1408 1407 1405
1452 1452 1452 1452 1452 1451 1450 1449 1448 1448 1446 1446 1445 1444 1443 1442 1441 1440 1438 1437 1436 1434 1433 1430 1428 1426 1424 1420 1417 1416 1415 1412 1410 1409 1407 1406 1404 1403
1451 1450 1450 1450 1449 1448 1447 1447 1446 1445 1444 1443 1442 1441 1440 1439 1438 1437 1436 1434 1433 1432 1430 1429 1426 1424 1422 1418 1415 1413 1412 1411 1408 1406 1405 1403 1402 1401
1449 1449 1448 1448 1447 1446 1445 1445 1444 1443 1442 1440 1439 1438 1437 1436 1435 1434 1433 1432 1431 1429 1428 1426 1424 1422 1420 1418 1414 1412 1409 1408 1406 1405 1403 1401 1400 1398
1447 1447 1446 1445 1445 1444 1443 1442 1441 1440 1439 1438 1437 1436 1435 1434 1433 1431 1430 1428 1427 1426 1425 1424 1422 1420 1417 1415 1413 1410 1409 1406 1404 1403 1401 1400 1398 1397
1445 1444 1444 1443 1442 1442 1441 1440 1439 1438 1437 1436 1435 1434 1433 1432 1430 1429 1428 1426 1425 1423 1422 1421 1419 1417 1415 1414 1411 1409 1407 1405 1403 1401 1399 1397 1396 1395
1443 1442 1442 1441 1440 1440 1439 1438 1438 1437 1436 1434 1433 1432 1431 1430 1428 1427 1426 1425 1423 1421 1420 1418 1416 1414 1413 1411 1411 1408 1405 1403 1402 1400 1398 1396 1395 1394
1442 1441 1440 1440 1439 1439 1438 1437 1436 1435 1434 1433 1432 1430 1429 1428 1427 1426 1424 1423 1421 1420 1418 1417 1415 1412 1410 1408 1407 1407 1404 1402 1400 1398 1397 1396 1394 1393
1440 1439 1439 1438 1438 1437 1436 1435 1434 1433 1432 1431 1430 1429 1428 1427 1426 1424 1423 1421 1420 1418 1416 1415 1414 1412 1410 1409 1406 1404 1404 1401 1399 1397 1396 1395 1394 1393
1438 1438 1438 1437 1436 1435 1434 1434 1432 1431 1430 1429 1428 1428 1426 1425 1424 1423 1421 1420 1419 1417 1415 1413 1412 1411 1410 1408 1405 1403 1402 1401 1399 1397 1395 1394 1392 1391
1436 1436 1436 1435 1434 1434 1432 1432 1431 1430 1428 1427 1427 1426 1425 1424 1422 1421 1420 1418 1417 1415 1414 1412 1411 1410 1408 1407 1404 1402 1401 1400 1399 1397 1396 1394 1393 1391
1434 1434 1433 1433 1432 1432 1431 1429 1429 1428 1427 1426 1425 1424 1423 1422 1420 1419 1418 1417 1415 1414 1412 1411 1409 1409 1407 1406 1404 1402 1400 1399 1397 1396 1395 1394 1393 1392